OE-11213 Weather Reports


time (UTC)temp
C
wind
direction
speed
KPH
gust
KPH
rain 1hr
cm
rain 24hr
cm
rain mn
cm
humidity
%
barometer
mb
20260903111144 25 117 3.2 16.1 0.00 0.00 0.00 52 1018.7
20260903110531 25 123 4.8 11.3 0.00 0.00 0.00 51 1018.9
20260903105531 24 151 3.2 9.7 0.00 0.00 0.00 55 1019.1
20260903104144 24 118 3.2 9.7 0.00 0.00 0.00 56 1019.3
20260903103531 23 101 3.2 8.0 0.00 0.00 0.00 56 1019.4
20260903102531 23 124 4.8 9.7 0.00 0.00 0.00 55 1019.9
20260903101144 23 134 4.8 9.7 0.00 0.00 0.00 57 1020.0
20260903100531 23 126 6.4 11.3 0.00 0.00 0.00 58 1020.0
20260903095531 22 195 3.2 8.0 0.00 0.00 0.00 61 1020.3
20260903094143 22 135 4.8 8.0 0.00 0.00 0.00 62 1020.5
20260903093531 22 160 3.2 9.7 0.00 0.00 0.00 62 1020.6
20260903091144 21 87 3.2 8.0 0.00 0.00 0.00 64 1021.1
20260903090531 22 252 1.6 9.7 0.00 0.00 0.00 63 1021.0
20260903085530 21 328 3.2 12.9 0.00 0.00 0.00 65 1021.4
20260903084143 21 318 6.4 12.9 0.00 0.00 0.00 68 1021.5
20260903083531 21 258 3.2 9.7 0.00 0.00 0.00 66 1021.5
20260903082531 21 247 4.8 11.3 0.00 0.00 0.00 69 1021.5
20260903081144 20 235 1.6 9.7 0.00 0.00 0.00 69 1021.6
20260903080531 20 305 6.4 12.9 0.00 0.00 0.00 71 1021.8
20260903075531 20 284 6.4 16.1 0.00 0.00 0.00 71 1021.9
20260903074144 20 283 1.6 9.7 0.00 0.00 0.00 73 1022.0
20260903073530 19 249 1.6 12.9 0.00 0.00 0.00 75 1022.0
20260903072530 18 205 4.8 9.7 0.00 0.00 0.00 80 1022.4
20260903071144 18 243 6.4 14.5 0.00 0.00 0.00 79 1022.3
20260903070531 18 280 4.8 14.5 0.00 0.00 0.00 78 1022.4
20260903065531 17 246 3.2 12.9 0.00 0.00 0.00 82 1022.6
20260903064143 17 247 4.8 9.7 0.00 0.00 0.00 83 1022.6
20260903063530 17 223 8.0 12.9 0.00 0.00 0.00 85 1022.7
20260903062531 17 239 6.4 12.9 0.00 0.00 0.00 86 1022.5
20260903061144 17 230 4.8 8.0 0.00 0.00 0.00 87 1022.5
20260903060531 16 204 4.8 9.7 0.00 0.00 0.00 90 1022.5
20260903055530 16 248 3.2 8.0 0.00 0.00 0.00 88 1022.4
20260903054143 16 258 3.2 9.7 0.00 0.00 0.00 89 1022.4
20260903053531 16 284 4.8 14.5 0.00 0.00 0.00 91 1022.5
20260903052531 15 212 4.8 12.9 0.00 0.00 0.00 94 1022.3
20260903051144 15 211 6.4 9.7 0.00 0.00 0.00 94 1022.3
20260903050530 15 225 1.6 6.4 0.00 0.00 0.00 93 1022.3
20260903045531 15 318 6.4 12.9 0.00 0.00 0.00 93 1022.3
20260903044143 15 283 4.8 9.7 0.00 0.00 0.00 92 1022.0
20260903043530 15 237 4.8 9.7 0.00 0.00 0.00 93 1022.0
20260903042531 16 234 4.8 11.3 0.00 0.00 0.00 92 1021.9
20260903041143 16 214 4.8 9.7 0.00 0.00 0.00 93 1021.9
20260903040531 16 212 4.8 12.9 0.00 0.00 0.00 93 1021.8
20260903035531 16 233 6.4 11.3 0.00 0.00 0.00 93 1021.8
20260903034530 16 267 4.8 12.9 0.00 0.00 0.00 92 1021.7
20260903033530 16 207 4.8 11.3 0.00 0.00 0.00 93 1021.8
20260903032531 16 197 4.8 9.7 0.00 0.00 0.00 94 1021.8
20260903031144 16 207 4.8 8.0 0.00 0.00 0.00 93 1021.8
20260903030531 16 205 3.2 4.8 0.00 0.00 0.00 92 1021.7
20260903025531 16 216 3.2 6.4 0.00 0.00 0.00 93 1021.7
20260903024531 16 210 4.8 8.0 0.00 0.00 0.00 93 1021.7
20260903023531 16 220 4.8 9.7 0.00 0.00 0.00 91 1021.7
20260903022531 16 219 4.8 8.0 0.00 0.00 0.00 91 1021.7
20260903021143 16 235 4.8 9.7 0.00 0.00 0.00 90 1021.8
20260903020531 16 235 6.4 9.7 0.00 0.00 0.00 91 1021.9
20260903015531 16 223 6.4 11.3 0.00 0.00 0.00 91 1021.9
20260903014143 16 219 6.4 9.7 0.00 0.00 0.00 91 1021.9
20260903013530 16 193 3.2 8.0 0.00 0.00 0.00 92 1021.8
20260903012530 16 235 4.8 8.0 0.00 0.00 0.00 90 1021.8
20260903011144 16 230 6.4 9.7 0.00 0.00 0.00 89 1021.6
20260903010531 16 230 6.4 9.7 0.00 0.00 0.00 90 1021.6
20260903005531 16 207 4.8 9.7 0.00 0.00 0.00 89 1021.6
20260903004144 16 198 4.8 6.4 0.00 0.00 0.00 89 1021.7
20260903003531 17 219 3.2 8.0 0.00 0.00 0.00 87 1021.6
20260903002531 17 196 3.2 6.4 0.00 0.00 0.00 87 1021.6
20260903001543 17 239 4.8 9.7 0.00 0.00 0.00 86 1021.7
20260903000530 17 219 3.2 6.4 0.00 0.00 0.00 88 1021.7
20260902235530 17 252 4.8 9.7 0.00 0.00 0.00 87 1021.7
20260902234144 16 218 6.4 9.7 0.00 0.00 0.00 89 1021.8
20260902233530 16 207 4.8 9.7 0.00 0.00 0.00 89 1021.7
20260902232530 17 210 4.8 9.7 0.00 0.00 0.00 87 1021.6
20260902231531 17 219 4.8 9.7 0.00 0.00 0.00 87 1021.6
20260902230530 17 215 6.4 9.7 0.00 0.00 0.00 85 1021.4
20260902225531 17 201 4.8 9.7 0.00 0.00 0.00 84 1021.5
20260902224144 17 224 4.8 11.3 0.00 0.00 0.00 84 1021.3
20260902223531 17 216 9.7 14.5 0.00 0.00 0.00 84 1021.1
20260902222531 18 240 9.7 17.7 0.00 0.00 0.00 85 1021.0
20260902221144 18 246 9.7 17.7 0.00 0.00 0.00 85 1020.9
20260902220530 18 242 9.7 20.9 0.00 0.23 0.00 85 1020.7
20260902215530 18 233 8.0 19.3 0.00 0.48 0.00 85 1020.9
20260902214144 17 216 9.7 16.1 0.00 0.53 0.00 84 1020.8
20260902213530 18 232 9.7 17.7 0.00 0.53 0.00 83 1020.6
20260902211144 18 283 4.8 16.1 0.00 0.53 0.00 81 1020.3
20260902210531 18 241 3.2 8.0 0.00 0.53 0.00 80 1020.3
20260902205531 18 68 1.6 11.3 0.00 0.53 0.00 80 1020.3
20260902204145 18 200 8.0 14.5 0.00 0.53 0.00 82 1020.3
20260902203530 18 198 9.7 17.7 0.00 0.53 0.00 83 1020.0
20260902202531 19 231 9.7 19.3 0.00 0.53 0.00 79 1020.2
20260902201144 19 269 9.7 24.1 0.00 0.53 0.00 74 1020.0
20260902200531 19 262 6.4 20.9 0.00 0.53 0.00 79 1020.1
20260902195531 18 206 4.8 8.0 0.00 0.53 0.00 88 1020.1
20260902194144 19 209 3.2 8.0 0.00 0.53 0.00 86 1020.0
20260902193531 20 171 4.8 6.4 0.00 0.53 0.00 88 1019.8
20260902192530 20 73 4.8 9.7 0.00 0.53 0.00 84 1019.6
20260902191144 21 13 4.8 11.3 0.00 0.53 0.00 81 1019.4
20260902190530 20 249 3.2 8.0 0.00 0.53 0.00 84 1019.4
20260902185531 21 185 3.2 6.4 0.00 0.53 0.00 82 1019.4
20260902184144 21 195 4.8 6.4 0.00 0.53 0.00 80 1018.9
20260902183531 21 196 6.4 14.5 0.00 0.53 0.00 81 1018.7
20260902182531 21 205 4.8 9.7 0.00 0.53 0.00 80 1018.7
20260902181144 22 127 1.6 4.8 0.00 0.53 0.00 75 1018.3
20260902180531 22 237 4.8 6.4 0.00 0.53 0.00 69 1018.3
20260902175531 22 173 3.2 6.4 0.00 0.53 0.00 67 1018.1
20260902174144 22 85 3.2 9.7 0.00 0.53 0.00 67 1018.1
20260902173530 22 52 6.4 9.7 0.00 0.53 0.00 66 1017.9
20260902172531 22 99 3.2 8.0 0.00 0.53 0.00 67 1017.6
20260902171144 23 55 6.4 12.9 0.00 0.53 0.00 66 1017.6
20260902170531 23 55 8.0 14.5 0.00 0.53 0.00 65 1017.4
20260902165531 23 90 6.4 16.1 0.00 0.53 0.00 62 1016.9
20260902164144 23 97 6.4 14.5 0.00 0.53 0.00 63 1017.1
20260902163531 23 125 8.0 14.5 0.00 0.53 0.00 62 1017.0
20260902162531 23 127 9.7 17.7 0.00 0.53 0.00 63 1016.9
20260902161144 24 130 8.0 17.7 0.00 0.53 0.00 64 1016.9
20260902160530 24 111 6.4 14.5 0.00 0.53 0.00 63 1017.0
20260902155531 24 132 8.0 14.5 0.00 0.53 0.00 63 1016.9
20260902154144 24 136 8.0 16.1 0.00 0.53 0.00 63 1016.9
20260902153531 24 141 8.0 14.5 0.00 0.53 0.00 60 1016.9
20260902152530 25 137 8.0 16.1 0.00 0.53 0.00 62 1016.8
20260902151144 25 127 8.0 12.9 0.00 0.53 0.00 61 1016.9
20260902150531 24 142 6.4 12.9 0.00 0.53 0.00 63 1017.0
20260902145531 24 134 6.4 12.9 0.00 0.53 0.00 61 1017.1
20260902144144 24 139 8.0 12.9 0.00 0.53 0.00 62 1017.1
20260902143530 23 127 6.4 14.5 0.00 0.53 0.00 62 1017.4
20260902142531 24 129 8.0 16.1 0.00 0.53 0.00 59 1017.3
20260902141144 24 124 8.0 14.5 0.00 0.53 0.00 59 1017.4
20260902140531 24 116 8.0 14.5 0.00 0.53 0.00 58 1017.6
20260902135531 24 117 8.0 14.5 0.00 0.53 0.00 59 1017.7
20260902134143 24 129 6.4 12.9 0.00 0.53 0.00 57 1017.6
20260902133531 24 122 8.0 14.5 0.00 0.53 0.00 57 1017.7
20260902132531 25 130 8.0 14.5 0.00 0.53 0.00 57 1017.7
20260902131144 24 140 6.4 14.5 0.00 0.53 0.00 58 1018.0
20260902130531 25 140 6.4 12.9 0.00 0.53 0.00 55 1018.1
20260902125531 25 139 4.8 12.9 0.00 0.53 0.00 56 1018.2
20260902124143 24 141 4.8 16.1 0.00 0.53 0.00 58 1018.5
20260902123531 24 143 4.8 11.3 0.00 0.53 0.00 59 1018.8
20260902122531 23 134 6.4 12.9 0.00 0.53 0.00 57 1018.9
20260902121144 23 159 4.8 9.7 0.00 0.53 0.00 57 1019.1
20260902120530 23 147 8.0 12.9 0.00 0.53 0.00 57 1019.2
20260902115530 23 145 6.4 16.1 0.00 0.53 0.00 60 1019.2
20260902114144 23 156 6.4 14.5 0.00 0.53 0.00 63 1019.4
20260902113531 23 139 6.4 12.9 0.00 0.53 0.00 61 1019.7
20260902112531 23 122 4.8 11.3 0.00 0.53 0.00 64 1020.0